Theta_e
316 316 316 316 316 317 316 316 316 315 315 316 315 316 317 317 318 318 317 317 318 318 318 318 319 319 319 319 319 318 318 317 317 316 314 313 311 310 309 310 309 309
311 311 312 312 313 313 313 314 314 313 314 314 315 315 316 316 316 316 316 316 316 316 316 316 317 317 317 317 316 316 316 316 315 316 314 313 312 312 311 312 312 311
309 309 310 310 311 312 312 312 311 311 311 312 313 313 313 314 313 313 313 313 314 314 314 314 314 315 315 315 315 314 314 314 313 314 312 312 312 311 311 310 310 309
308 307 308 308 309 309 309 309 310 310 310 310 310 311 311 311 311 311 311 309 310 311 312 313 312 312 312 313 313 312 312 312 312 313 312 311 311 311 311 311 310 309
306 306 307 307 307 307 307 307 308 308 308 309 309 309 309 309 309 309 309 309 310 309 310 310 311 310 310 310 310 310 310 309 310 310 309 309 310 310 310 309 309 308
305 305 305 305 305 306 306 306 307 307 307 307 308 307 307 307 307 307 308 307 308 308 308 308 309 309 308 307 307 308 308 307 308 308 307 307 307 308 308 308 307 306
303 303 303 304 304 304 304 305 305 304 305 305 304 305 306 305 305 306 306 306 306 306 306 306 307 307 307 306 305 304 305 306 306 306 305 305 306 305 306 306 306 305
301 301 301 301 302 302 302 302 302 302 302 302 302 303 303 303 303 304 304 305 304 304 304 305 305 305 305 305 303 303 303 304 304 304 304 303 303 302 302 304 303 302
300 299 299 300 300 300 300 300 300 300 300 300 301 301 301 301 302 302 302 302 301 301 302 302 302 302 303 302 302 302 302 302 303 302 301 300 300 300 300 300 300 299
298 298 298 298 299 299 298 298 298 299 298 298 299 299 299 300 300 300 300 299 299 299 299 299 298 298 299 299 300 300 299 300 300 300 300 300 300 299 299 299 299 299
298 298 298 297 297 298 297 297 297 298 298 297 298 298 299 299 299 299 298 298 298 298 298 297 297 298 297 298 298 298 298 297 298 298 298 298 299 299 296 298 298 298
297 297 297 297 296 297 297 297 297 297 297 297 297 297 297 298 298 298 298 298 298 298 297 297 297 297 297 296 297 297 297 297 296 297 297 297 298 298 298 298 297 297
296 296 296 296 296 296 296 297 296 296 296 296 296 296 296 297 297 297 298 297 297 298 297 297 297 297 297 297 297 297 296 296 296 296 296 296 296 297 297 297 297 297
295 295 295 295 295 296 296 296 296 296 295 295 295 295 296 296 296 296 296 297 297 297 297 297 297 297 297 297 296 296 296 296 296 295 295 295 296 296 296 296 296 296
294 294 295 294 294 294 294 294 294 295 294 294 295 295 296 295 295 295 295 295 296 296 296 297 296 297 297 297 297 297 297 296 296 295 295 295 295 295 296 296 296 296
293 293 293 293 293 293 293 293 293 293 293 293 293 294 294 295 294 295 295 295 295 295 296 296 296 297 293 291 292 294 295 295 295 295 295 294 294 294 295 295 296 296
292 292 292 291 292 292 292 291 291 292 292 292 292 293 292 293 294 294 294 295 295 295 295 295 296 296 292 293 293 293 293 294 294 294 295 294 294 293 293 294 295 295
291 291 291 291 290 290 290 290 290 289 289 289 290 291 291 291 291 292 293 293 294 294 294 294 295 292 293 293 292 293 292 293 295 294 294 294 294 294 294 294 294 294
290 289 289 289 289 289 288 288 288 289 289 289 289 289 289 289 291 291 292 292 293 293 293 293 294 292 292 292 292 292 292 292 294 294 294 294 294 294 294 294 294 293
289 288 288 288 288 288 288 287 288 288 288 288 289 289 288 289 289 290 290 291 291 291 291 292 292 291 292 292 291 292 292 292 293 294 294 294 294 294 294 294 294 293
288 288 287 287 287 287 287 287 287 287 287 287 288 288 288 288 288 288 288 288 289 289 290 290 292 291 291 291 291 292 292 292 293 293 293 293 294 294 294 294 294 294
287 287 287 286 286 286 286 286 286 286 286 287 287 287 288 288 288 288 288 287 288 288 288 288 290 290 290 290 291 291 292 291 292 292 292 292 292 293 293 294 294 294
287 286 285 285 285 285 285 285 285 285 286 286 286 286 286 287 287 287 287 287 287 287 287 287 288 289 289 289 290 291 291 290 289 290 290 290 291 292 293 293 293 293
286 285 284 284 284 284 284 284 285 285 285 286 285 285 285 286 286 286 287 287 286 286 287 286 287 287 288 289 289 290 289 288 289 289 289 289 289 291 292 292 292 288
285 284 283 283 283 283 283 283 284 284 285 285 285 285 285 286 286 286 286 286 286 286 285 286 286 286 287 288 289 289 289 288 288 288 288 288 289 289 290 290 291 290
283 283 283 282 282 282 283 283 283 284 284 284 284 284 285 285 285 285 284 285 286 286 286 286 286 287 287 288 288 289 289 288 288 288 287 287 288 289 289 289 290 291
Wind_Speed
3 3 4 4 4 4 4 6 6 7 7 7 8 8 8 9 9 9 9 9 9 10 11 11 12 12 11 10 10 9 8 9 8 7 9 9 10 11 12 12 13 13
2 3 3 3 4 3 4 4 5 5 6 6 6 6 6 7 8 6 9 10 9 10 10 10 10 11 11 10 11 11 11 11 12 8 9 12 10 11 14 15 14 12
2 2 3 3 3 4 4 4 4 5 5 5 7 7 6 5 8 8 8 9 10 10 10 9 9 10 10 10 10 10 11 11 10 8 9 11 8 10 12 12 10 11
1 1 1 2 3 4 3 4 4 4 4 4 4 5 7 7 7 8 8 8 7 7 8 9 10 9 9 10 10 10 10 11 12 11 9 8 9 10 11 9 12 11
2 2 2 2 2 3 3 3 4 4 5 5 5 5 5 6 7 7 7 8 8 9 8 9 10 10 10 10 10 11 11 10 11 11 11 11 12 10 9 8 10 12
3 3 2 2 3 3 3 3 4 5 5 5 5 5 5 6 6 6 7 7 7 8 8 9 9 9 9 10 9 11 11 10 9 11 11 12 11 10 10 10 11 13
5 4 5 4 4 4 4 4 5 5 5 5 5 5 5 5 6 6 7 7 8 8 8 8 9 9 9 9 9 10 10 11 10 9 11 11 10 11 10 11 11 11
5 5 4 4 4 4 5 5 5 5 5 5 5 5 4 5 6 5 6 7 7 8 8 9 9 10 10 9 10 10 11 9 9 10 11 11 9 10 9 9 9 11
4 5 5 5 5 5 5 5 5 4 4 5 5 5 4 4 5 5 6 7 7 8 8 8 9 9 9 10 11 11 12 11 10 9 10 10 10 11 10 9 10 11
5 4 5 5 5 4 4 4 3 3 3 4 4 4 5 4 4 5 5 6 7 8 8 8 9 9 9 9 11 11 11 11 11 10 10 10 11 11 10 10 11 12
5 4 4 5 4 3 3 3 3 3 2 3 3 3 4 4 4 3 4 5 6 7 8 8 8 9 9 10 10 10 10 10 10 10 10 11 11 11 11 11 11 12
5 5 6 6 5 5 5 4 4 3 4 3 3 4 4 3 3 3 3 5 5 6 8 8 8 8 9 9 9 10 10 10 9 9 10 10 11 11 11 10 12 12
7 7 6 7 7 6 5 5 5 5 5 5 4 4 5 5 4 4 4 4 5 5 6 7 8 9 9 9 10 10 10 10 9 9 11 11 10 12 11 11 12 12
7 7 7 7 6 6 6 6 6 6 6 6 6 6 6 6 6 6 6 5 5 5 6 6 7 7 8 9 9 10 10 10 10 11 12 11 11 11 11 12 12 12
6 6 6 7 7 7 7 8 7 7 7 7 6 6 5 6 6 6 7 7 6 6 6 6 6 7 5 6 8 9 10 11 11 10 10 11 11 11 11 11 12 12
6 6 6 6 7 7 7 7 7 7 7 7 7 7 7 7 7 6 6 6 7 8 7 5 6 5 6 11 11 9 9 10 10 11 11 11 11 11 12 12 12 12
6 6 6 7 7 6 7 7 7 7 6 7 7 7 7 7 7 7 7 6 7 7 8 7 6 6 11 12 14 15 12 11 11 11 11 12 11 12 12 12 12 12
6 6 6 6 6 6 7 7 5 4 4 5 6 6 6 6 7 7 8 8 6 7 8 7 7 10 14 14 15 15 13 11 11 11 11 11 12 13 13 11 12 12
6 6 6 6 6 6 4 4 4 4 4 4 4 5 5 5 8 8 8 8 8 8 9 8 9 11 13 15 16 16 16 14 11 12 12 13 13 14 13 13 12 12
5 4 6 6 5 4 5 4 4 4 4 4 5 4 4 5 5 6 7 8 8 9 9 9 10 10 13 15 16 17 16 14 11 13 13 14 15 15 14 14 14 12
6 6 6 7 6 5 5 5 5 5 5 5 5 5 5 6 6 6 5 5 7 7 9 8 8 11 13 14 15 16 16 14 11 11 12 13 14 14 15 16 16 14
6 7 7 5 6 6 5 6 6 6 7 6 5 6 6 5 5 5 7 9 7 7 8 9 9 10 12 14 14 14 16 10 10 10 12 12 13 13 13 13 15 14
6 6 6 6 6 6 6 6 7 8 6 6 7 6 7 6 7 6 6 8 11 9 7 10 9 10 12 14 14 14 12 8 8 9 10 12 12 13 13 13 14 15
6 6 6 7 6 7 7 7 7 6 6 5 7 9 9 7 8 9 8 6 9 12 9 9 12 14 13 15 16 13 12 9 8 9 10 10 11 13 12 12 13 17
6 6 7 8 8 9 8 9 9 8 8 7 7 7 9 8 7 7 9 7 9 10 14 14 13 15 16 15 15 13 11 7 9 8 10 10 9 11 9 10 11 12
7 8 8 9 10 10 9 8 9 8 8 8 9 8 9 9 8 8 12 12 12 10 11 12 13 13 15 19 15 14 14 10 8 10 11 11 10 11 11 9 9 11
Wind_Direction
243 250 258 258 257 261 266 264 268 271 271 270 269 274 271 273 267 257 257 258 257 255 253 250 250 250 250 249 247 245 239 233 231 219 219 220 226 225 230 226 221 227
249 246 255 261 264 253 257 263 269 273 274 267 266 266 267 269 271 260 260 262 259 257 259 260 258 257 257 254 251 248 246 244 245 224 220 217 223 222 231 235 236 236
224 230 236 253 274 291 291 285 275 271 269 277 284 280 279 274 275 270 265 264 266 264 262 260 260 260 260 259 258 256 253 251 245 231 227 230 224 225 233 232 230 225
83 322 315 299 294 303 305 299 291 280 277 278 275 286 290 287 283 278 272 262 255 261 259 262 262 260 257 257 258 259 260 258 255 253 244 241 239 238 239 235 237 234
28 24 2 340 331 320 309 300 301 303 300 298 298 296 289 295 294 292 285 280 275 271 270 269 266 264 261 257 253 254 253 252 251 249 250 250 250 246 245 239 237 239
69 49 35 14 355 348 332 330 325 323 321 316 316 316 308 308 303 296 293 288 285 281 279 276 273 269 266 261 259 255 257 255 250 247 249 248 249 246 250 246 245 243
57 46 35 24 14 11 352 350 342 330 328 325 317 307 316 310 305 301 298 293 288 284 281 279 276 272 267 263 256 255 256 259 260 253 251 252 252 252 247 248 250 252
65 62 47 35 23 22 11 359 350 341 335 324 313 314 318 306 299 301 299 296 293 287 283 278 275 273 270 264 259 255 256 253 255 253 255 255 251 257 254 250 253 253
54 60 57 49 40 30 14 359 348 334 330 318 317 317 313 303 306 305 302 296 288 285 281 278 274 273 271 266 264 264 263 262 258 255 254 255 255 254 253 252 251 250
50 49 60 56 54 39 13 358 337 330 319 309 311 309 306 300 290 294 293 290 287 285 281 279 274 268 266 265 266 267 266 265 263 258 257 258 257 258 254 249 248 251
50 45 51 57 54 42 16 353 342 325 320 308 307 296 296 297 291 272 280 287 288 287 286 283 279 278 276 274 272 267 264 261 260 259 257 257 256 256 256 251 252 249
36 29 31 36 34 27 13 1 354 351 338 331 326 321 308 292 290 288 276 277 278 286 289 287 286 281 275 272 271 275 268 260 256 253 251 253 257 258 255 252 251 253
22 18 15 19 20 10 1 358 357 351 352 348 340 321 325 327 321 310 301 295 289 287 284 286 292 289 285 283 281 275 271 265 261 258 257 256 252 256 256 254 252 252
16 7 8 13 8 4 359 358 353 353 352 344 340 341 341 335 332 327 318 301 294 290 288 286 285 285 287 288 283 280 277 271 266 265 267 262 260 257 255 254 252 253
6 0 1 6 4 1 359 355 350 347 342 339 340 336 332 330 325 323 320 318 308 297 295 289 284 283 284 284 290 287 285 285 281 270 265 268 265 263 261 257 256 252
1 3 0 359 4 358 353 344 340 340 335 333 332 331 326 323 321 316 310 306 311 310 304 290 283 277 271 268 265 273 283 282 281 277 272 268 267 268 266 260 259 257
7 4 358 4 358 348 344 340 336 333 328 324 324 324 319 318 313 310 309 305 298 297 296 292 282 278 281 276 275 268 268 275 275 277 271 267 265 264 266 267 263 259
7 0 359 356 352 347 337 332 322 318 320 322 319 317 318 315 307 298 298 297 289 284 278 276 276 281 286 285 280 277 271 272 277 276 273 269 265 263 263 264 265 263
5 2 355 352 350 337 325 315 308 303 302 305 303 303 297 291 293 294 290 290 281 280 276 272 271 273 275 275 275 275 275 271 273 270 270 268 267 265 264 261 258 259
5 353 351 343 335 330 324 315 313 307 310 299 287 284 283 282 279 272 276 276 274 276 274 267 262 264 263 262 263 265 267 266 266 268 269 270 269 268 266 265 261 260
0 350 342 338 335 332 325 318 317 312 309 310 304 299 295 298 302 296 282 280 278 276 276 269 259 266 265 261 261 263 266 267 267 266 269 269 269 268 267 265 264 262
355 346 339 334 331 327 321 317 314 308 309 308 300 297 288 282 279 278 289 296 287 280 282 277 271 271 270 268 262 263 266 269 265 264 265 266 266 264 261 264 268 263
346 339 330 329 326 319 313 311 312 313 307 312 304 296 296 294 292 291 288 296 301 292 272 284 281 280 276 273 268 259 266 269 267 266 266 264 262 264 262 262 263 261
339 339 330 324 322 321 318 315 309 303 304 312 307 306 302 297 301 296 290 276 293 294 285 284 288 287 277 271 271 253 249 264 266 267 266 263 266 263 260 258 257 254
337 339 335 332 330 326 325 320 320 316 307 309 306 301 292 294 295 294 295 282 285 284 289 285 286 289 286 275 258 247 244 254 262 266 268 262 265 267 259 258 258 254
343 341 340 337 328 320 321 315 313 313 315 317 312 307 305 304 304 299 303 298 299 293 289 285 287 288 290 287 267 252 239 248 257 266 262 268 265 270 275 269 261 257